User: anonymous
Location: Broad Creek
(39.7000°N, 76.2570°W)
Time: 01:59:01
(UTC-04:00)
Language:

ETS-7 - Orbit

View from above orbital plane
View from above orbital plane
View from above satellite
View from above satellite

Ground track
Ground track

The orbit data is extracted from the following two-line orbital elements,

1 25064U 97074B   14272.53293280  .00028606  00000-0  45958-3 0  2698
2 25064 034.9626 304.1045 0002691 299.9604 185.9778 15.52011363937374
Epoch (UTC): 29 September 2014 12:47:25
Eccentricity: 0.0002691
inclination: 34.9626°
perigee height: 409 km
apogee height: 412 km
right ascension of ascending node: 304.1045°
argument of perigee: 299.9604°
revolutions per day: 15.52011363
mean anomaly at epoch: 185.9778°
orbit number at epoch: 93737

The dashed part of the orbit path shows where the satellite is in the earth's shadow,  

DLR